This demonstration page uses our WeatherBlox Daily Observations layout. Learn more.

Left ArrowRight Arrow

34.74481, -87.66753

Hourly Observations for July 24, 2020

Temp ( °F °C ) Dew Point ( °F °C ) Humidity (%) Winds ( mph kmh ) Pressure ( in mb ) Visibility ( mi km ) Precip ( " mm )
12:53 am 00:53 Clear 77 25 73 22.8 88 88 E 5 7 30.07 1018 10 16 0.00 0.00
1:53 am 01:53 Clear 76 24.4 73 22.8 91 91 Calm 30.06 1018 10 16 0.00 0.00
2:53 am 02:53 Clear 76 24.4 73 22.8 91 91 Calm 30.06 1018 10 16 0.00 0.00
3:53 am 03:53 Clear 75 23.9 72 22.2 90 90 E 3 6 30.07 1018 10 16 0.00 0.00
4:53 am 04:53 Clear 75 23.9 71 21.7 88 88 SE 3 6 30.08 1019 10 16 0.00 0.00
5:53 am 05:53 Clear 74 23.3 71 21.7 91 91 Calm 30.09 1019 10 16 0.00 0.00
6:53 am 06:53 Sunny 76 24.4 72 22.2 88 88 ESE 3 6 30.11 1020 10 16 0.00 0.00
7:53 am 07:53 Sunny 78 25.6 71 21.7 79 79 SSE 7 11 30.12 1020 10 16 0.00 0.00
8:53 am 08:53 Sunny 81 27.2 71 21.7 72 72 Calm 30.14 1021 10 16 0.00 0.00
9:53 am 09:53 Sunny 85 29.4 72 22.2 65 65 SSE 7 11 30.14 1021 10 16 0.00 0.00
10:53 am 10:53 Mostly Sunny 86 30 72 22.2 63 63 VRB 7 11 30.14 1021 10 16 0.00 0.00
11:53 am 11:53 Mostly Cloudy 86 30 72 22.2 63 63 SE 7 11 30.13 1020 10 16 0.00 0.00
12:53 pm 12:53 Mostly Sunny 89 31.7 72 22.2 57 57 VRB 7 11 30.11 1020 10 16 0.00 0.00
1:53 pm 13:53 Sunny 90 32.2 71 21.7 54 54 SSE 8 13 30.09 1019 10 16 0.00 0.00
2:53 pm 14:53 Mostly Sunny 92 33.3 70 21.1 49 49 ESE 8 13 30.07 1018 10 16 0.00 0.00
3:53 pm 15:53 Mostly Sunny 92 33.3 71 21.7 51 51 SE 12 19 30.05 1018 10 16 0.00 0.00
4:53 pm 16:53 Mostly Sunny 91 32.8 72 22.2 54 54 S 5 7 30.06 1018 10 16 0.00 0.00
5:53 pm 17:53 Sunny 90 32.2 70 21.1 52 52 SE 5 7 30.05 1018 10 16 0.00 0.00
6:53 pm 18:53 Sunny 88 31.1 72 22.2 59 59 SE 5 7 30.06 1018 10 16 0.00 0.00
7:53 pm 19:53 Sunny 84 28.9 74 23.3 72 72 ESE 3 6 30.07 1018 10 16 0.00 0.00
8:53 pm 20:53 Mostly Cloudy 83 28.3 73 22.8 72 72 SSE 5 7 30.07 1018 10 16 0.00 0.00
9:53 pm 21:53 Clear 82 27.8 73 22.8 74 74 S 6 9 30.10 1019 10 16 0.00 0.00
10:53 pm 22:53 Clear 79 26.1 71 21.7 77 77 S 7 11 30.10 1019 10 16 0.00 0.00
11:53 pm 23:53 Mostly Clear 78 25.6 71 21.7 79 79 Calm 30.10 1019 10 16 0.00 0.00

Powered by AerisWeather